Flight Track Log - Related Links

Times and Time Zones

All times are in EDT time to prevent confusion due to time zone crossing. See the SWA655 flight status page for this flight to view local times or setup timezone preferences in your user account.

Time Position Orientation Groundspeed Altitude Reporting Facility
EDT Latitude Longitude Course Direction KTS MPH feet Rate Location/Type
Mon 07:50:53 PM 33.9439 -118.4592 59° Northeast 167 192 1,700  Level Los Angeles Center
Mon 07:51:55 PM 33.9308 -118.5272 257° West 219 252 3,900 2,613 Climbing Los Angeles Center
Mon 07:52:57 PM 33.8603 -118.5281 181° South 281 323 7,100 3,290 Climbing Los Angeles Center
Mon 07:53:59 PM 33.8783 -118.4514 74° East 258 297 10,700 3,111 Climbing Los Angeles Center
Mon 07:55:12 PM 33.9431 -118.4172 24° Northeast 287 330 14,100 3,000 Climbing Los Angeles Center
Mon 07:56:00 PM 34.1778 -117.9778 59° Northeast  Level FlightAware Approximate
Mon 07:56:15 PM 34.0069 -118.3011 56° Northeast 340 391 17,500  Level Los Angeles Center
Mon 07:57:16 PM 34.0764 -118.1800 55° Northeast 358 412 21,200 3,366 Climbing Los Angeles Center
Mon 07:58:18 PM 34.1353 -118.0753 56° Northeast 372 428 24,400 1,839 Climbing Los Angeles Center
Mon 07:59:20 PM 34.1933 -117.9719 56° Northeast 372 428 25,000 288 Climbing Los Angeles Center
Mon 08:00:23 PM 34.2522 -117.8689 55° Northeast 372 428 25,000  Level Los Angeles Center
Mon 08:01:25 PM 34.3103 -117.7647 56° Northeast 374 430 25,000  Level Los Angeles Center
Mon 08:02:27 PM 34.3681 -117.6603 56° Northeast 374 430 25,000  Level Los Angeles Center
Mon 08:03:29 PM 34.4281 -117.5525 56° Northeast 367 422 25,000  Level Los Angeles Center
Mon 08:04:30 PM 34.4842 -117.4497 56° Northeast 368 423 25,000  Level Los Angeles Center
Mon 08:05:32 PM 34.5411 -117.3475 56° Northeast 367 422 25,000  Level Los Angeles Center
Mon 08:06:34 PM 34.6092 -117.2239 56° Northeast 371 427 25,000  Level Los Angeles Center
Mon 08:07:36 PM 34.6658 -117.1206 56° Northeast 369 425 25,000  Level Los Angeles Center
Mon 08:08:38 PM 34.7222 -117.0172 56° Northeast 370 426 25,000  Level Los Angeles Center
Mon 08:09:39 PM 34.7797 -116.9106 57° Northeast 377 434 25,000  Level Los Angeles Center
Mon 08:10:41 PM 34.8375 -116.8050 56° Northeast 376 433 25,000  Level Los Angeles Center
Mon 08:11:43 PM 34.9056 -116.6792 57° Northeast 371 427 25,000  Level Los Angeles Center
Mon 08:12:45 PM 34.9653 -116.5728 56° Northeast 379 436 25,000 -484 Level Los Angeles Center
Mon 08:13:47 PM 35.0353 -116.4842 46° Northeast 370 426 24,000 -484 Descending Los Angeles Center
Mon 08:14:49 PM 35.1042 -116.3975 46° Northeast 359 413 24,000  Level Los Angeles Center
Mon 08:15:50 PM 35.1739 -116.3106 46° Northeast 358 412 24,000  Level Los Angeles Center
Mon 08:16:52 PM 35.2444 -116.2225 46° Northeast 362 417 24,000 -871 Level Los Angeles Center
Mon 08:17:54 PM 35.3242 -116.1206 46° Northeast 348 400 22,200 -1,645 Descending Los Angeles Center
Mon 08:18:56 PM 35.3894 -116.0397 45° Northeast 336 387 20,600 -1,597 Descending Los Angeles Center
Mon 08:19:58 PM 35.4506 -115.9611 46° Northeast 324 373 18,900 -1,935 Descending Los Angeles Center
Mon 08:20:29 PM 35.4842 -115.9183 46° Northeast 322 371 17,600 -1,839 Descending Los Angeles Center
Mon 08:21:00 PM 35.5111 -115.8853 45° Northeast 316 364 17,000 -1,475 Descending Los Angeles Center
Mon 08:21:30 PM 35.5458 -115.8433 44° Northeast 315 362 16,100 -1,770 Descending Los Angeles Center
Mon 08:22:01 PM 35.5722 -115.8031 51° Northeast 312 359 15,200 -2,262 Descending Los Angeles Center
Mon 08:22:31 PM 35.5986 -115.7578 54° Northeast 315 362 13,800 -2,032 Descending Los Angeles Center
Mon 08:23:03 PM 35.6233 -115.7139 55° Northeast 317 365 13,100 -1,309 Descending Los Angeles Center
Mon 08:23:26 PM 35.6456 -115.6742 55° Northeast 318 366 12,600 -1,355 Descending Los Angeles Center
Mon 08:24:05 PM 35.6719 -115.6275 55° Northeast 311 358 11,700 -1,672 Descending Los Angeles Center
Mon 08:24:27 PM 35.6978 -115.5858 53° Northeast 301 346 10,900 -1,548 Descending Los Angeles Center
Mon 08:25:07 PM 35.7283 -115.5292 56° Northeast 300 345 10,100 -1,309 Descending Los Angeles Center
Mon 08:25:22 PM 35.7372 -115.5178 46° Northeast 288 331 9,700 -1,935 Descending Los Angeles Center
Mon 08:26:09 PM 35.7733 -115.4536 55° Northeast 290 334 8,100 -2,091 Descending Los Angeles Center
Mon 08:26:28 PM 35.7858 -115.4331 53° Northeast 271 312 7,400 -984 Descending Los Angeles Center
Mon 08:27:10 PM 35.8156 -115.3786 56° Northeast 279 321 7,100 -295 Descending Los Angeles Center
Mon 08:27:29 PM 35.8281 -115.3583 53° Northeast 264 304 7,100  Level Los Angeles Center
Mon 08:28:12 PM 35.8539 -115.3131 55° Northeast 261 300 7,100  Level Los Angeles Center
Mon 08:28:30 PM 35.8661 -115.2956 49° Northeast 227 261 7,100 -581 Level Los Angeles Center
Mon 08:29:14 PM 35.8989 -115.2692 33° Northeast 239 275 6,500 -1,082 Descending Los Angeles Center
Mon 08:29:31 PM 35.9203 -115.2567 25° Northeast 222 255 6,000 -1,000 Descending Los Angeles Center
Mon 08:30:32 PM 35.9725 -115.2289 23° Northeast 201 231 5,200 -453 Descending Los Angeles Center
Mon 08:31:17 PM 36.0072 -115.2053 29° Northeast 218 251 5,200 168 Level Los Angeles Center
Mon 08:32:19 PM 36.0042 -115.1461 94° East 201 231 5,500 145 Climbing Los Angeles Center
Mon 08:33:21 PM 35.9544 -115.1547 188° South 196 226 5,500 48 Level Los Angeles Center
Mon 08:34:23 PM 35.9747 -115.1869 308° West 171 197 5,600 -341 Climbing Los Angeles Center
Mon 08:35:24 PM 36.0222 -115.2028 345° North 171 197 4,800 -1,366 Descending Los Angeles Center
Mon 08:36:26 PM 36.0508 -115.1811 31° Northeast 144 166 2,800 -1,935 Descending Los Angeles Center
Mon 08:38:00 PM 36.0801 -115.1523 90° East  Level Estimated
Mon 08:45:00 PM 36.0801 -115.1523 270° West  Level Estimated

Login

Don't have an account? Register now (free) for customized features, flight alerts, and more!